[[{"header":{"parameterUnit":"m.s-1","parameterCategory":2,"la1":30.2991,"la2":30.254,"lo1":-89.0895,"lo2":-89.0444,"dy":0.0017,"dx":0.0017,"nx":28,"ny":28,"refTime":"2025-01-26T03:00:00:Z","depth":"0","parameterNumber":2,"parameterNumberName":"U-component_of_CURRENTS"},"data":[0,0,0,0,0,0,0,0,0,0,0,0,0,0,0,0,0,0,0,0,0,0,0,0,0,0,0,0,0,0,0,0,0,0,0,0,0,0,0,0,0,0,0,0,0,0,0,0,0,0,0,0,0,0,0,0,0,0,-0.2099,-0.21,0,-0.2144,-0.2145,-0.2145,-0.2116,-0.2114,-0.2113,-0.2112,-0.221,-0.2213,-0.2217,0,0,0,0,0,0,0,0,0,0,0,0,0,-0.2033,-0.2034,-0.2099,-0.21,-0.2101,-0.2144,-0.2145,-0.2145,-0.2116,-0.2114,-0.2113,-0.2111,-0.2208,-0.2213,-0.2217,0,0,0,0,0,0,0,0,0,0,0,0,0,-0.2067,-0.2034,-0.2099,-0.2092,-0.2092,-0.2144,-0.2145,-0.2145,-0.2116,-0.2114,-0.2112,-0.211,-0.2207,-0.2212,-0.2218,-0.2292,0,0,-0.2235,-0.2238,0,0,0,0,0,0,0,0,-0.2065,-0.2069,-0.2092,-0.2092,-0.2092,-0.2123,-0.2157,-0.2197,-0.2117,-0.2106,-0.2112,-0.2109,-0.2188,-0.2195,-0.2205,-0.2296,-0.23,-0.2236,-0.2239,-0.2242,-0.2243,0,0,0,0,0,0,0,-0.2063,-0.2068,-0.2116,-0.2093,-0.2093,-0.2102,-0.2104,-0.2164,-0.2157,-0.2107,-0.2105,-0.2112,-0.2188,-0.22,-0.2208,-0.2302,-0.2236,-0.2241,-0.2244,-0.2247,-0.244,-0.2442,0,0,0,0,0,0,-0.2059,-0.2065,-0.2115,-0.2118,-0.2075,-0.2104,-0.2107,-0.2114,-0.2155,-0.216,-0.2114,-0.211,-0.2191,-0.2201,-0.2211,-0.2243,-0.2242,-0.2247,-0.225,-0.2438,-0.244,-0.2442,0,0,0,0,0,0,-0.2058,-0.2063,-0.2113,-0.2093,-0.21,-0.2107,-0.2116,-0.2116,-0.2121,-0.216,-0.2165,-0.2117,-0.219,-0.2203,-0.2249,-0.2249,-0.225,-0.2255,-0.2436,-0.2439,-0.2441,-0.2345,0,0,0,0,0,0,-0.2055,-0.2062,-0.2066,-0.2093,-0.2101,-0.2136,-0.2118,-0.2119,-0.2129,-0.2126,-0.2166,-0.2173,-0.219,-0.224,-0.2254,-0.2257,-0.2259,-0.2434,-0.2438,-0.2441,-0.2346,-0.2344,-0.2343,0,0,0,0,0,-0.2053,-0.2064,-0.2065,-0.2071,-0.2105,-0.2136,-0.2141,-0.2139,-0.2131,-0.2136,-0.2156,-0.2171,-0.2271,-0.2246,-0.2262,-0.2266,-0.2433,-0.2437,-0.244,-0.2347,-0.2345,-0.2343,0,0,0,0,0,0,-0.2038,-0.2063,-0.2065,-0.2083,-0.2104,-0.2131,-0.2138,-0.2145,-0.2166,-0.2161,-0.219,-0.22,-0.2239,-0.2285,-0.2256,-0.2339,-0.2358,-0.2365,-0.2281,-0.228,-0.2278,-0.2261,-0.2264,0,0,0,0,0,-0.2039,-0.2048,-0.2078,-0.209,-0.2102,-0.2123,-0.2135,-0.2138,-0.2163,-0.2168,-0.2195,-0.2237,-0.2275,-0.2298,-0.2343,-0.2395,-0.2395,-0.2415,-0.2413,-0.2411,-0.2414,-0.2399,-0.2393,-0.2455,-0.2455,-0.2455,0,0,-0.2036,-0.2051,-0.2056,-0.2087,-0.2103,-0.2123,-0.2124,-0.2144,-0.2155,-0.2182,-0.2204,-0.2233,-0.2289,-0.2325,-0.235,-0.2357,-0.2393,-0.2416,-0.2412,-0.2417,-0.2402,-0.2395,-0.2389,-0.2458,-0.2457,-0.2457,0,0,-0.2037,-0.205,-0.2058,-0.2079,-0.2105,-0.2123,-0.2129,-0.2159,-0.216,-0.2197,-0.2209,-0.2228,-0.231,-0.2322,-0.2346,-0.2377,-0.2382,-0.241,-0.2383,-0.2367,-0.236,-0.2354,-0.2322,-0.2314,-0.2409,-0.2409,-0.2409,0,-0.203,-0.2047,-0.2066,-0.2083,-0.2098,-0.2122,-0.2138,-0.2154,-0.2191,-0.2197,-0.2196,-0.2268,-0.2302,-0.2329,-0.2329,-0.2365,-0.2357,-0.2371,-0.2357,-0.2351,-0.2346,-0.2316,-0.2308,-0.2405,-0.2405,-0.2405,-0.2406,0,-0.2039,-0.2053,-0.2062,-0.2087,-0.2108,-0.2127,-0.2154,-0.217,-0.218,-0.2192,-0.2216,-0.2244,-0.2283,-0.2297,-0.232,-0.2318,-0.2321,-0.2344,-0.2341,-0.2333,-0.2303,-0.2296,-0.2399,-0.24,-0.2401,-0.2402,0,0,-0.2016,-0.2059,-0.2059,-0.2069,-0.211,-0.2126,-0.215,-0.2174,-0.2178,-0.2198,-0.2199,-0.2238,-0.224,-0.2271,-0.2291,-0.2276,-0.2217,-0.2294,-0.2295,-0.2225,-0.2166,-0.2089,-0.2074,-0.2228,-0.2227,-0.2226,-0.2147,0,-0.2012,-0.2036,-0.2063,-0.2084,-0.2099,-0.213,-0.2149,-0.2172,-0.2187,-0.2195,-0.2203,-0.2221,-0.2236,-0.2242,-0.2226,-0.2237,-0.2202,-0.2237,-0.222,-0.2219,-0.212,-0.2065,-0.1969,-0.1884,-0.214,-0.2139,-0.2139,0,-0.2003,-0.2022,-0.2042,-0.2076,-0.2085,-0.2101,-0.2126,-0.2147,-0.2167,-0.2179,-0.2185,-0.22,-0.2193,-0.22,-0.2173,-0.2195,-0.2173,-0.2163,-0.216,-0.2119,-0.213,-0.1946,-0.1863,-0.1828,-0.2129,-0.2129,-0.213,0,-0.1961,-0.2001,-0.2012,-0.2026,-0.2074,-0.2082,-0.2103,-0.2133,-0.2143,-0.2161,-0.2164,-0.2167,-0.2162,-0.2143,-0.2131,-0.215,-0.2084,-0.2109,-0.2009,-0.2003,-0.1936,-0.1925,-0.1786,-0.2062,-0.2062,-0.2062,-0.2062,0,-0.1939,-0.1945,-0.199,-0.1996,-0.2005,-0.2049,-0.2055,-0.2082,-0.2107,-0.2106,-0.2144,-0.2133,-0.2146,-0.212,-0.2108,-0.2027,-0.2062,-0.1981,-0.197,-0.1901,-0.1888,-0.1871,-0.1896,-0.2059,-0.206,-0.206,-0.2061,0,-0.1882,-0.1918,-0.1928,-0.1971,-0.1983,-0.1983,-0.2022,-0.2022,-0.2064,-0.2061,-0.2064,-0.2093,-0.2057,-0.2052,-0.2015,-0.1981,-0.1874,-0.189,-0.1797,-0.1775,-0.1638,-0.1663,-0.1545,-0.1499,-0.1752,-0.175,-0.1747,0,-0.1851,-0.1851,-0.189,-0.1889,-0.1905,-0.192,-0.1924,-0.1983,-0.1986,-0.2025,-0.201,-0.1996,-0.1957,-0.1876,-0.1821,-0.1749,-0.1761,-0.1615,-0.1629,-0.1587,-0.1608,-0.1636,-0.161,-0.1499,-0.1495,-0.1492,-0.149,0,-0.1783,-0.1797,-0.1805,-0.1804,-0.1808,-0.1819,-0.1835,-0.1837,-0.1894,-0.1896,-0.1879,-0.1855,-0.179,-0.1668,-0.1588,-0.1546,-0.1551,-0.1544,-0.1526,-0.1405,-0.1402,-0.1367,-0.1599,-0.1461,-0.1463,-0.1466,-0.1467,-0.1468,-0.1716,-0.17,-0.1706,-0.1697,-0.1706,-0.1696,-0.1662,-0.169,-0.1679,-0.1655,-0.1707,-0.1637,-0.1554,-0.1423,-0.1371,-0.1239,-0.1327,-0.1195,-0.1229,-0.1262,-0.1207,-0.1359,-0.1199,-0.12,-0.1201,-0.1202,-0.1203,0,-0.1613,-0.1605,-0.1594,-0.1576,-0.1541,-0.1584,-0.1576,-0.1526,-0.147,-0.1481,-0.1443,-0.136,-0.1215,-0.116,-0.1027,-0.095,-0.0948,-0.0928,-0.0955,-0.0945,-0.1081,-0.1059,-0.0828,-0.0828,-0.0828,-0.0829,-0.0829,-0.0829,-0.1557,-0.1507,-0.1502,-0.141,-0.1394,-0.1305,-0.1276,-0.1229,-0.1212,-0.1133,-0.1103,-0.1123,-0.1065,-0.1,-0.0851,-0.0795,-0.0783,-0.074,-0.0786,-0.0898,-0.0927,-0.0955,-0.0936,-0.0684,-0.0684,-0.0601,-0.06,-0.06]},{"header":{"parameterUnit":"m.s-1","parameterCategory":2,"la1":30.2991,"la2":30.254,"lo1":-89.0895,"lo2":-89.0444,"dy":0.0017,"dx":0.0017,"nx":28,"ny":28,"refTime":"2025-01-26T03:00:00:Z","depth":"0","parameterNumber":3,"parameterNumberName":"V-component_of_CURRENTS"},"data":[0,0,0,0,0,0,0,0,0,0,0,0,0,0,0,0,0,0,0,0,0,0,0,0,0,0,0,0,0,0,0,0,0,0,0,0,0,0,0,0,0,0,0,0,0,0,0,0,0,0,0,0,0,0,0,0,0,0,-0.0498,-0.0498,0,-0.0446,-0.0445,-0.0444,-0.0392,-0.0392,-0.0391,-0.039,-0.0328,-0.0327,-0.0325,0,0,0,0,0,0,0,0,0,0,0,0,0,-0.0525,-0.0525,-0.0498,-0.0498,-0.0497,-0.0446,-0.0445,-0.0444,-0.0392,-0.0392,-0.0391,-0.039,-0.0328,-0.0327,-0.0325,0,0,0,0,0,0,0,0,0,0,0,0,0,-0.0497,-0.0525,-0.0499,-0.0465,-0.0462,-0.0446,-0.0445,-0.0444,-0.0393,-0.0392,-0.0391,-0.039,-0.0328,-0.0327,-0.0325,-0.0336,0,0,-0.032,-0.032,0,0,0,0,0,0,0,0,-0.0499,-0.0496,-0.0471,-0.0467,-0.0463,-0.0424,-0.0431,-0.0407,-0.0393,-0.0419,-0.039,-0.0389,-0.036,-0.0356,-0.0348,-0.0333,-0.033,-0.032,-0.0319,-0.0319,-0.0318,0,0,0,0,0,0,0,-0.0501,-0.0498,-0.0477,-0.047,-0.0466,-0.0443,-0.0438,-0.0426,-0.0395,-0.0416,-0.0412,-0.0407,-0.0358,-0.035,-0.0346,-0.0329,-0.032,-0.0319,-0.0318,-0.0317,-0.0309,-0.031,0,0,0,0,0,0,-0.051,-0.05,-0.0479,-0.0476,-0.0479,-0.0443,-0.0438,-0.0438,-0.0396,-0.0388,-0.0408,-0.0405,-0.0353,-0.0348,-0.0344,-0.0345,-0.0319,-0.0317,-0.0316,-0.0308,-0.0309,-0.031,0,0,0,0,0,0,-0.0511,-0.0509,-0.0481,-0.0486,-0.0481,-0.0444,-0.0445,-0.0437,-0.0426,-0.0389,-0.0381,-0.0403,-0.0352,-0.0346,-0.0331,-0.0343,-0.0317,-0.0315,-0.0308,-0.0309,-0.031,-0.0354,0,0,0,0,0,0,-0.0512,-0.051,-0.0514,-0.0487,-0.0481,-0.0478,-0.0445,-0.0437,-0.0424,-0.042,-0.0383,-0.0376,-0.0351,-0.0333,-0.0329,-0.034,-0.0314,-0.0307,-0.0308,-0.0309,-0.0352,-0.0357,-0.0361,0,0,0,0,0,-0.0513,-0.0525,-0.0515,-0.0512,-0.0488,-0.0479,-0.0474,-0.0443,-0.0425,-0.0428,-0.0398,-0.0377,-0.0339,-0.0333,-0.0328,-0.0338,-0.0306,-0.0308,-0.0309,-0.035,-0.0356,-0.0361,0,0,0,0,0,0,-0.0537,-0.052,-0.0508,-0.0514,-0.05,-0.047,-0.0468,-0.0449,-0.0428,-0.0421,-0.0384,-0.0375,-0.0366,-0.035,-0.0344,-0.0341,-0.0321,-0.0322,-0.0353,-0.0359,-0.0363,-0.037,-0.0313,0,0,0,0,0,-0.0546,-0.0551,-0.053,-0.0534,-0.0529,-0.0501,-0.0492,-0.0474,-0.0451,-0.044,-0.0414,-0.039,-0.0372,-0.0362,-0.0345,-0.0345,-0.0319,-0.035,-0.0355,-0.0359,-0.0362,-0.0334,-0.0336,-0.0315,-0.0315,-0.0315,0,0,-0.0555,-0.0547,-0.0549,-0.054,-0.0525,-0.0529,-0.0493,-0.0487,-0.0487,-0.0439,-0.0432,-0.0404,-0.0375,-0.037,-0.0365,-0.0356,-0.0351,-0.0361,-0.0364,-0.0365,-0.0336,-0.0338,-0.0339,-0.0316,-0.0316,-0.0316,0,0,-0.0582,-0.0571,-0.0586,-0.058,-0.0566,-0.0551,-0.0552,-0.0527,-0.0513,-0.0505,-0.0468,-0.0446,-0.0425,-0.0402,-0.0388,-0.041,-0.0374,-0.041,-0.0439,-0.0412,-0.0413,-0.0414,-0.038,-0.0378,-0.0414,-0.0414,-0.0414,0,-0.0593,-0.0608,-0.0588,-0.0601,-0.06,-0.0565,-0.0581,-0.0565,-0.0538,-0.0529,-0.051,-0.0466,-0.044,-0.0426,-0.0431,-0.042,-0.0397,-0.0419,-0.0417,-0.0417,-0.0417,-0.0382,-0.0379,-0.0416,-0.0416,-0.0416,-0.0415,0,-0.063,-0.0641,-0.065,-0.0656,-0.0654,-0.0661,-0.064,-0.0632,-0.0609,-0.0588,-0.0567,-0.0525,-0.0497,-0.0488,-0.0464,-0.0456,-0.0436,-0.0423,-0.0402,-0.0422,-0.0384,-0.038,-0.0419,-0.0419,-0.0418,-0.0417,0,0,-0.0657,-0.0674,-0.0677,-0.069,-0.0684,-0.0687,-0.069,-0.068,-0.0675,-0.0645,-0.0635,-0.0598,-0.0566,-0.0549,-0.0514,-0.0489,-0.0464,-0.0461,-0.0459,-0.0426,-0.0399,-0.0356,-0.0347,-0.0451,-0.045,-0.045,-0.0372,0,-0.0691,-0.0732,-0.0728,-0.0761,-0.0779,-0.0754,-0.0759,-0.0744,-0.0717,-0.0698,-0.0651,-0.0628,-0.0593,-0.0575,-0.0546,-0.0482,-0.0456,-0.0486,-0.0387,-0.0384,-0.0341,-0.0342,-0.0329,-0.0256,-0.0367,-0.0366,-0.0366,0,-0.073,-0.0752,-0.0795,-0.0815,-0.0819,-0.083,-0.0826,-0.0824,-0.0788,-0.0765,-0.0731,-0.0686,-0.0642,-0.061,-0.0516,-0.0537,-0.0477,-0.0426,-0.0422,-0.0364,-0.0333,-0.0255,-0.0243,-0.0169,-0.0359,-0.0359,-0.036,0,-0.0765,-0.0799,-0.0836,-0.0844,-0.0859,-0.0868,-0.0868,-0.0844,-0.084,-0.0804,-0.0788,-0.0729,-0.0689,-0.0617,-0.0506,-0.0513,-0.0395,-0.0391,-0.0295,-0.0291,-0.0251,-0.0244,-0.0154,-0.033,-0.033,-0.0331,-0.0331,0,-0.0806,-0.0835,-0.0855,-0.0877,-0.0911,-0.0905,-0.0923,-0.0912,-0.0888,-0.0878,-0.0823,-0.079,-0.0688,-0.0603,-0.0517,-0.0383,-0.0401,-0.0296,-0.0268,-0.0266,-0.0262,-0.0171,-0.0134,-0.0328,-0.0328,-0.0329,-0.0329,0,-0.0841,-0.0856,-0.0899,-0.0924,-0.0932,-0.0956,-0.0965,-0.0971,-0.0943,-0.0925,-0.0915,-0.083,-0.0715,-0.0601,-0.0465,-0.0386,-0.021,-0.0222,-0.0221,-0.0194,-0.0046,-0.0012,0.0126,0.018,-0.0112,-0.011,-0.0109,0,-0.0862,-0.0889,-0.0934,-0.0959,-0.0972,-0.1,-0.1015,-0.1003,-0.1,-0.094,-0.0929,-0.082,-0.0728,-0.0511,-0.0357,-0.0194,-0.0132,-0.0088,-0.0101,-0.0029,0.003,0.0053,0.009,-0.0064,-0.0062,-0.0061,-0.006,0,-0.0898,-0.0913,-0.0949,-0.0998,-0.1029,-0.106,-0.1073,-0.1078,-0.1048,-0.101,-0.0931,-0.0852,-0.0642,-0.0447,-0.0237,-0.014,-0.0023,-0.0056,0.0017,0.0076,0.011,0.0172,-0.0121,-0.0049,-0.005,-0.0051,-0.0051,-0.0052,-0.0915,-0.0949,-0.099,-0.1034,-0.1073,-0.1101,-0.1107,-0.11,-0.1077,-0.099,-0.0925,-0.0768,-0.0527,-0.0225,-0.0117,0.0103,0.0094,0.0161,0.0198,0.0215,0.0265,0.0003,0.0106,0.0106,0.0106,0.0106,0.0106,0,-0.0929,-0.0967,-0.1017,-0.107,-0.1107,-0.1118,-0.1129,-0.1101,-0.1052,-0.0953,-0.0847,-0.0552,-0.0309,-0.0083,0.0214,0.0338,0.036,0.0398,0.0422,0.0448,0.0214,0.0212,0.0345,0.0345,0.0345,0.0345,0.0345,0.0345,-0.0938,-0.0987,-0.1015,-0.1078,-0.111,-0.1124,-0.112,-0.1062,-0.0978,-0.0771,-0.0583,-0.0457,-0.0132,0.0274,0.0526,0.0553,0.0653,0.0659,0.0718,0.0536,0.0515,0.0496,0.0502,0.0694,0.0694,0.0929,0.0931,0.0933]}],[{"header":{"parameterUnit":"m.s-1","parameterCategory":2,"la1":30.2991,"la2":30.254,"lo1":-89.0895,"lo2":-89.0444,"dy":0.0017,"dx":0.0017,"nx":28,"ny":28,"refTime":"2025-01-26T03:00:00:Z","depth":"2","parameterNumber":2,"parameterNumberName":"U-component_of_CURRENTS"},"data":[0,0,0,0,0,0,0,0,0,0,0,0,0,0,0,0,0,0,0,0,0,0,0,0,0,0,0,0,0,0,0,0,0,0,0,0,0,0,0,0,0,0,0,0,0,0,0,0,0,0,0,0,0,0,0,0,0,0,-0.1972,-0.1973,0,-0.2016,-0.2017,-0.2017,-0.1995,-0.1994,-0.1993,-0.1992,-0.2022,-0.2024,-0.2026,0,0,0,0,0,0,0,0,0,0,0,0,0,-0.191,-0.1911,-0.1972,-0.1973,-0.1974,-0.2016,-0.2017,-0.2017,-0.1996,-0.1994,-0.1993,-0.1992,-0.2022,-0.2024,-0.2026,0,0,0,0,0,0,0,0,0,0,0,0,0,-0.1943,-0.1911,-0.1972,-0.1968,-0.1969,-0.2016,-0.2017,-0.2018,-0.1996,-0.1994,-0.1993,-0.1991,-0.2021,-0.2024,-0.2026,-0.2076,0,0,-0.2035,-0.2036,0,0,0,0,0,0,0,0,-0.1941,-0.1945,-0.1968,-0.1969,-0.1969,-0.1999,-0.2006,-0.2037,-0.1996,-0.1985,-0.1992,-0.199,-0.2015,-0.2018,-0.2029,-0.2077,-0.2078,-0.2035,-0.2037,-0.2038,-0.2039,0,0,0,0,0,0,0,-0.1939,-0.1943,-0.1989,-0.1969,-0.197,-0.1978,-0.1981,-0.2012,-0.2008,-0.1986,-0.1984,-0.1991,-0.2015,-0.2027,-0.203,-0.2079,-0.2035,-0.2037,-0.2039,-0.204,-0.2131,-0.2132,0,0,0,0,0,0,-0.1935,-0.1941,-0.1988,-0.199,-0.1952,-0.1981,-0.1983,-0.1991,-0.2008,-0.2009,-0.1992,-0.199,-0.2023,-0.2027,-0.2031,-0.2054,-0.2038,-0.204,-0.2042,-0.213,-0.2131,-0.2132,0,0,0,0,0,0,-0.1933,-0.1939,-0.1986,-0.1967,-0.1974,-0.1983,-0.1992,-0.1992,-0.2001,-0.2013,-0.2013,-0.1999,-0.2022,-0.2027,-0.2054,-0.2056,-0.2042,-0.2044,-0.2129,-0.213,-0.2131,-0.2123,0,0,0,0,0,0,-0.1931,-0.1938,-0.1942,-0.1967,-0.1975,-0.2008,-0.1993,-0.1994,-0.2008,-0.2005,-0.202,-0.202,-0.2021,-0.205,-0.2057,-0.2059,-0.2046,-0.2128,-0.213,-0.2131,-0.2122,-0.2124,-0.2125,0,0,0,0,0,-0.1929,-0.194,-0.1942,-0.1948,-0.198,-0.2008,-0.2013,-0.2014,-0.2009,-0.2015,-0.2026,-0.202,-0.2064,-0.2054,-0.2061,-0.2064,-0.2127,-0.2129,-0.2131,-0.2122,-0.2124,-0.2125,0,0,0,0,0,0,-0.1917,-0.194,-0.1942,-0.196,-0.198,-0.2005,-0.2013,-0.202,-0.2036,-0.2032,-0.2039,-0.2042,-0.2066,-0.2075,-0.2063,-0.2096,-0.2092,-0.2095,-0.2082,-0.2084,-0.2086,-0.207,-0.2048,0,0,0,0,0,-0.1918,-0.1927,-0.1954,-0.1967,-0.1978,-0.1999,-0.2011,-0.2016,-0.2034,-0.2039,-0.2051,-0.2065,-0.2084,-0.2089,-0.211,-0.2136,-0.2121,-0.2141,-0.2142,-0.2143,-0.2137,-0.2121,-0.2119,-0.2138,-0.2138,-0.2138,0,0,-0.1917,-0.1931,-0.1936,-0.1965,-0.198,-0.1999,-0.2002,-0.2022,-0.2033,-0.2043,-0.2061,-0.2078,-0.2095,-0.2115,-0.2126,-0.2118,-0.213,-0.2146,-0.2146,-0.2139,-0.2123,-0.212,-0.2119,-0.2139,-0.2139,-0.2138,0,0,-0.1919,-0.1933,-0.1941,-0.196,-0.1986,-0.2001,-0.2009,-0.2038,-0.2042,-0.2072,-0.2076,-0.209,-0.2127,-0.2128,-0.2136,-0.2162,-0.2144,-0.2173,-0.216,-0.2145,-0.2142,-0.214,-0.2111,-0.2106,-0.2166,-0.2166,-0.2166,0,-0.1916,-0.1931,-0.1949,-0.1965,-0.1979,-0.2002,-0.2017,-0.2034,-0.2066,-0.2072,-0.2073,-0.2114,-0.2128,-0.2141,-0.2145,-0.2162,-0.2148,-0.2149,-0.2144,-0.2141,-0.2139,-0.211,-0.2105,-0.2165,-0.2165,-0.2165,-0.2165,0,-0.1925,-0.1938,-0.1947,-0.197,-0.199,-0.2008,-0.2034,-0.2051,-0.2064,-0.2076,-0.2097,-0.2115,-0.2132,-0.2141,-0.2152,-0.215,-0.2142,-0.215,-0.2133,-0.2136,-0.2106,-0.2101,-0.2165,-0.2165,-0.2165,-0.2165,0,0,-0.1905,-0.1944,-0.1945,-0.1955,-0.1993,-0.2008,-0.2032,-0.2055,-0.2062,-0.2084,-0.2088,-0.2118,-0.2122,-0.2132,-0.2144,-0.213,-0.2103,-0.2132,-0.2132,-0.2091,-0.2056,-0.1981,-0.1968,-0.2109,-0.2108,-0.2108,-0.2037,0,-0.1903,-0.1925,-0.1949,-0.197,-0.1984,-0.2013,-0.2031,-0.2054,-0.2072,-0.2083,-0.2092,-0.2106,-0.212,-0.2126,-0.2115,-0.2118,-0.2091,-0.2121,-0.207,-0.2068,-0.1991,-0.196,-0.1819,-0.1738,-0.2032,-0.2031,-0.203,0,-0.1895,-0.1913,-0.1932,-0.1964,-0.1973,-0.1989,-0.2015,-0.2035,-0.2058,-0.2071,-0.208,-0.2093,-0.2091,-0.2097,-0.2072,-0.2091,-0.2069,-0.2058,-0.2055,-0.1983,-0.1983,-0.1786,-0.1718,-0.2021,-0.2022,-0.2023,-0.2023,0,-0.1858,-0.1896,-0.1906,-0.192,-0.1964,-0.1974,-0.1995,-0.2025,-0.2037,-0.2058,-0.2063,-0.2068,-0.2066,-0.2048,-0.2036,-0.2052,-0.1992,-0.2012,-0.1915,-0.191,-0.1777,-0.176,-0.197,-0.197,-0.197,-0.197,-0.1971,0,-0.1839,-0.1845,-0.1889,-0.1895,-0.1905,-0.1947,-0.1956,-0.1983,-0.201,-0.201,-0.2049,-0.2039,-0.2053,-0.203,-0.2017,-0.194,-0.1973,-0.1894,-0.188,-0.177,-0.1755,-0.1998,-0.2002,-0.1968,-0.1968,-0.1969,-0.1969,0,-0.1788,-0.1821,-0.1832,-0.1875,-0.1886,-0.189,-0.1929,-0.1931,-0.1974,-0.1974,-0.1979,-0.2007,-0.1973,-0.197,-0.1933,-0.1899,-0.1849,-0.1811,-0.1674,-0.1644,-0.178,-0.1785,-0.1688,-0.1684,-0.1681,-0.1679,-0.1677,0,-0.176,-0.1761,-0.18,-0.1801,-0.1817,-0.1834,-0.1839,-0.1897,-0.1901,-0.1941,-0.1927,-0.1918,-0.1878,-0.1801,-0.1742,-0.1672,-0.1754,-0.1501,-0.1503,-0.1751,-0.1748,-0.1757,-0.1766,-0.1323,-0.1319,-0.1315,-0.1312,0,-0.1699,-0.1714,-0.1723,-0.1724,-0.173,-0.174,-0.1758,-0.176,-0.1815,-0.1816,-0.18,-0.1775,-0.171,-0.1566,-0.1489,-0.144,-0.1505,-0.1418,-0.1695,-0.1424,-0.1403,-0.1403,-0.1423,-0.1277,-0.1281,-0.1283,-0.1285,-0.1286,-0.1639,-0.1626,-0.1633,-0.1625,-0.1637,-0.1626,-0.1594,-0.1619,-0.1607,-0.158,-0.1627,-0.1536,-0.1507,-0.1308,-0.1218,-0.1151,-0.1273,-0.121,-0.1224,-0.1241,-0.1218,-0.1195,-0.1024,-0.1026,-0.1028,-0.1029,-0.1031,0,-0.1545,-0.1538,-0.1529,-0.1513,-0.1482,-0.1524,-0.1515,-0.1463,-0.1406,-0.1399,-0.1357,-0.1187,-0.1065,-0.1044,-0.0881,-0.0841,-0.0853,-0.0799,-0.0817,-0.0851,-0.0881,-0.0843,-0.0548,-0.0546,-0.0545,-0.0544,0,0,-0.1495,-0.1449,-0.1442,-0.1358,-0.1345,-0.1261,-0.1233,-0.1181,-0.1149,-0.106,-0.0998,-0.1035,-0.1028,-0.0804,-0.0735,-0.0614,-0.0734,-0.0576,-0.0964,-0.1021,-0.105,-0.1115,-0.1093,0,0,0,0,0]},{"header":{"parameterUnit":"m.s-1","parameterCategory":2,"la1":30.2991,"la2":30.254,"lo1":-89.0895,"lo2":-89.0444,"dy":0.0017,"dx":0.0017,"nx":28,"ny":28,"refTime":"2025-01-26T03:00:00:Z","depth":"2","parameterNumber":3,"parameterNumberName":"V-component_of_CURRENTS"},"data":[0,0,0,0,0,0,0,0,0,0,0,0,0,0,0,0,0,0,0,0,0,0,0,0,0,0,0,0,0,0,0,0,0,0,0,0,0,0,0,0,0,0,0,0,0,0,0,0,0,0,0,0,0,0,0,0,0,0,-0.0324,-0.0324,0,-0.0274,-0.0273,-0.0273,-0.0227,-0.0226,-0.0225,-0.0225,-0.0134,-0.0132,-0.013,0,0,0,0,0,0,0,0,0,0,0,0,0,-0.0352,-0.0352,-0.0324,-0.0324,-0.0323,-0.0274,-0.0273,-0.0273,-0.0227,-0.0226,-0.0225,-0.0225,-0.0134,-0.0132,-0.013,0,0,0,0,0,0,0,0,0,0,0,0,0,-0.0325,-0.0352,-0.0324,-0.0294,-0.0291,-0.0274,-0.0273,-0.0273,-0.0227,-0.0226,-0.0225,-0.0224,-0.0135,-0.0132,-0.013,-0.0129,0,0,-0.0121,-0.012,0,0,0,0,0,0,0,0,-0.0326,-0.0324,-0.0299,-0.0296,-0.0292,-0.0256,-0.025,-0.0222,-0.0227,-0.0251,-0.0225,-0.0224,-0.0171,-0.0166,-0.0158,-0.0125,-0.0121,-0.0121,-0.0119,-0.0118,-0.0117,0,0,0,0,0,0,0,-0.0328,-0.0325,-0.0304,-0.0299,-0.0294,-0.0273,-0.0269,-0.0244,-0.0216,-0.0249,-0.0245,-0.024,-0.0169,-0.0161,-0.0156,-0.0119,-0.0121,-0.0118,-0.0116,-0.0115,-0.0063,-0.0063,0,0,0,0,0,0,-0.0337,-0.0328,-0.0306,-0.0303,-0.0308,-0.0274,-0.0269,-0.0268,-0.0217,-0.0208,-0.0241,-0.0238,-0.0167,-0.0159,-0.0152,-0.0148,-0.0118,-0.0115,-0.0113,-0.0063,-0.0063,-0.0063,0,0,0,0,0,0,-0.0338,-0.0336,-0.0308,-0.0314,-0.0309,-0.0274,-0.0274,-0.0268,-0.0259,-0.0211,-0.0202,-0.0238,-0.0166,-0.0156,-0.0137,-0.0144,-0.0114,-0.0111,-0.0062,-0.0063,-0.0063,-0.0139,0,0,0,0,0,0,-0.0339,-0.0337,-0.0341,-0.0315,-0.0309,-0.0305,-0.0275,-0.0267,-0.0257,-0.0253,-0.0206,-0.0197,-0.0164,-0.0141,-0.0134,-0.0139,-0.0109,-0.0062,-0.0063,-0.0063,-0.0136,-0.0142,-0.0147,0,0,0,0,0,-0.034,-0.0351,-0.0342,-0.0339,-0.0315,-0.0305,-0.0301,-0.0273,-0.0258,-0.026,-0.023,-0.0198,-0.0139,-0.014,-0.0131,-0.0135,-0.0062,-0.0062,-0.0063,-0.0133,-0.014,-0.0146,0,0,0,0,0,0,-0.0364,-0.0347,-0.0336,-0.034,-0.0327,-0.0297,-0.0297,-0.0279,-0.0258,-0.0253,-0.0207,-0.0196,-0.0181,-0.0149,-0.015,-0.0121,-0.0093,-0.0092,-0.015,-0.0156,-0.0161,-0.0166,-0.0106,0,0,0,0,0,-0.0373,-0.0377,-0.0356,-0.036,-0.0355,-0.0328,-0.032,-0.0304,-0.0281,-0.027,-0.0239,-0.0204,-0.0178,-0.016,-0.0134,-0.0121,-0.0087,-0.0115,-0.0121,-0.0126,-0.0123,-0.0087,-0.0089,-0.0066,-0.0066,-0.0066,0,0,-0.0382,-0.0374,-0.0375,-0.0365,-0.0351,-0.0353,-0.0322,-0.0316,-0.0315,-0.0264,-0.0255,-0.0225,-0.018,-0.0167,-0.0156,-0.0139,-0.0116,-0.0127,-0.0131,-0.0125,-0.0088,-0.009,-0.0092,-0.0066,-0.0066,-0.0066,0,0,-0.0406,-0.0397,-0.041,-0.0404,-0.0391,-0.0375,-0.0377,-0.0354,-0.0341,-0.0331,-0.0294,-0.0271,-0.0232,-0.0201,-0.018,-0.0198,-0.015,-0.0188,-0.0215,-0.0181,-0.0183,-0.0184,-0.0153,-0.0151,-0.0187,-0.0187,-0.0187,0,-0.0418,-0.043,-0.0412,-0.0423,-0.0421,-0.0389,-0.0401,-0.0387,-0.036,-0.035,-0.0337,-0.028,-0.0247,-0.0221,-0.0228,-0.0211,-0.0184,-0.0197,-0.0189,-0.019,-0.0189,-0.0157,-0.0154,-0.0191,-0.019,-0.019,-0.0189,0,-0.045,-0.046,-0.0468,-0.0471,-0.0467,-0.0473,-0.0452,-0.0446,-0.0426,-0.0404,-0.038,-0.0338,-0.0299,-0.0289,-0.0264,-0.0245,-0.0226,-0.0206,-0.0176,-0.0196,-0.0161,-0.0156,-0.0196,-0.0195,-0.0193,-0.0193,0,0,-0.0477,-0.0489,-0.0492,-0.0502,-0.0494,-0.0496,-0.0495,-0.0482,-0.0475,-0.0448,-0.0434,-0.0395,-0.0366,-0.034,-0.0304,-0.0275,-0.0258,-0.0245,-0.0241,-0.0221,-0.0186,-0.0157,-0.0148,-0.024,-0.0239,-0.0238,-0.0166,0,-0.0507,-0.0542,-0.0535,-0.0563,-0.0577,-0.0552,-0.0553,-0.0536,-0.051,-0.0489,-0.0441,-0.0416,-0.0387,-0.037,-0.0339,-0.0275,-0.0246,-0.0279,-0.0163,-0.0159,-0.0136,-0.0142,-0.0133,-0.0066,-0.016,-0.0159,-0.0159,0,-0.0542,-0.056,-0.0596,-0.0609,-0.0612,-0.062,-0.061,-0.0606,-0.0566,-0.0544,-0.0507,-0.0464,-0.0418,-0.0392,-0.0296,-0.0319,-0.0261,-0.0212,-0.0207,-0.0148,-0.0121,-0.0057,-0.0052,-0.015,-0.015,-0.0151,-0.0152,0,-0.0575,-0.0602,-0.0633,-0.0639,-0.0647,-0.0654,-0.0653,-0.0624,-0.0618,-0.0578,-0.0561,-0.0498,-0.0463,-0.0386,-0.0286,-0.0291,-0.0175,-0.0165,-0.0085,-0.0082,-0.0033,-0.0027,-0.01,-0.01,-0.01,-0.01,-0.01,0,-0.0612,-0.0637,-0.0653,-0.0672,-0.0702,-0.0692,-0.0706,-0.0692,-0.0664,-0.0653,-0.0594,-0.056,-0.0459,-0.0378,-0.0293,-0.0169,-0.0177,-0.0086,-0.0059,-0.0059,-0.0057,-0.0093,-0.0094,-0.0097,-0.0098,-0.0098,-0.0099,0,-0.0646,-0.0658,-0.0696,-0.0715,-0.0722,-0.0745,-0.0751,-0.0754,-0.0723,-0.0704,-0.0694,-0.0605,-0.0496,-0.0385,-0.0249,-0.0174,-0.0062,-0.0017,-0.0027,-0.0002,0.0008,0.0003,0.0077,0.0079,0.008,0.0081,0.0082,0,-0.0667,-0.0692,-0.0732,-0.0756,-0.0768,-0.0794,-0.0807,-0.0791,-0.0785,-0.0723,-0.0711,-0.0608,-0.0518,-0.0309,-0.0162,-0.0005,-0.0015,0.009,0.0083,0.0008,0.0027,0.0019,0.0013,0.0117,0.0118,0.0119,0.0119,0,-0.0704,-0.0719,-0.0751,-0.0799,-0.0829,-0.0855,-0.0867,-0.087,-0.0836,-0.0797,-0.0717,-0.064,-0.0443,-0.0254,-0.0059,0.0033,0.0064,0.0115,0.0053,0.0066,0.0051,0.0067,0.0058,0.0128,0.0127,0.0127,0.0126,0.0126,-0.0725,-0.0758,-0.0797,-0.0841,-0.0877,-0.0901,-0.0907,-0.0894,-0.0869,-0.0778,-0.0714,-0.0551,-0.0406,-0.0095,0.0032,0.0159,0.0144,0.0189,0.0184,0.0178,0.0165,0.0153,0.0247,0.0247,0.0247,0.0247,0.0247,0,-0.0746,-0.0783,-0.083,-0.088,-0.0915,-0.0925,-0.0931,-0.09,-0.0849,-0.0739,-0.0632,-0.0415,-0.0213,-0.0054,0.0156,0.0257,0.0241,0.0278,0.0238,0.023,0.0222,0.0209,0.0305,0.0305,0.0305,0.0305,0,0,-0.0758,-0.0807,-0.0833,-0.0894,-0.0926,-0.0942,-0.0937,-0.0871,-0.0777,-0.0635,-0.0492,-0.035,-0.017,-0.0012,0.011,0.0222,0.0198,0.0233,0.018,0.0111,0.0102,0.0169,0.014,0,0,0,0,0]}],[{"header":{"parameterUnit":"m.s-1","parameterCategory":2,"la1":30.2991,"la2":30.254,"lo1":-89.0895,"lo2":-89.0444,"dy":0.0017,"dx":0.0017,"nx":28,"ny":28,"refTime":"2025-01-26T03:00:00:Z","depth":"4","parameterNumber":2,"parameterNumberName":"U-component_of_CURRENTS"},"data":[0,0,0,0,0,0,0,0,0,0,0,0,0,0,0,0,0,0,0,0,0,0,0,0,0,0,0,0,0,0,0,0,0,0,0,0,0,0,0,0,0,0,0,0,0,0,0,0,0,0,0,0,0,0,0,0,0,0,-0.1411,-0.1412,0,-0.1478,-0.1479,-0.148,-0.1509,-0.1509,-0.1509,-0.1509,-0.1522,-0.1523,-0.1523,0,0,0,0,0,0,0,0,0,0,0,0,0,-0.1333,-0.1334,-0.1411,-0.1412,-0.1413,-0.1478,-0.1479,-0.148,-0.1509,-0.1509,-0.1509,-0.1508,-0.1522,-0.1522,-0.1523,0,0,0,0,0,0,0,0,0,0,0,0,0,-0.138,-0.1335,-0.1411,-0.1435,-0.1438,-0.1478,-0.1479,-0.148,-0.1509,-0.1509,-0.1509,-0.1508,-0.1522,-0.1522,-0.1523,-0.153,0,0,-0.1525,-0.1525,0,0,0,0,0,0,0,0,-0.1377,-0.1383,-0.1431,-0.1434,-0.1437,-0.1485,-0.1456,-0.1494,-0.1509,-0.1482,-0.1509,-0.1508,-0.1505,-0.1507,-0.152,-0.153,-0.1531,-0.1525,-0.1526,-0.1526,-0.1526,0,0,0,0,0,0,0,-0.1374,-0.138,-0.1438,-0.1432,-0.1436,-0.1451,-0.1458,-0.1464,-0.1492,-0.1484,-0.1486,-0.1494,-0.1506,-0.152,-0.1521,-0.1531,-0.1525,-0.1526,-0.1526,-0.1526,-0.1578,-0.1579,0,0,0,0,0,0,-0.1365,-0.1377,-0.1435,-0.144,-0.1406,-0.1453,-0.146,-0.147,-0.1493,-0.1497,-0.1494,-0.1495,-0.1519,-0.152,-0.1521,-0.1567,-0.1526,-0.1526,-0.1527,-0.1577,-0.1578,-0.1579,0,0,0,0,0,0,-0.1363,-0.137,-0.1433,-0.141,-0.1419,-0.1454,-0.1465,-0.1471,-0.1506,-0.1502,-0.1505,-0.1525,-0.1519,-0.152,-0.1555,-0.1566,-0.1527,-0.1527,-0.1576,-0.1577,-0.1579,-0.1634,0,0,0,0,0,0,-0.1361,-0.1369,-0.1386,-0.1409,-0.142,-0.1466,-0.1465,-0.1472,-0.151,-0.1512,-0.1529,-0.1529,-0.1519,-0.1555,-0.1556,-0.1566,-0.1528,-0.1574,-0.1576,-0.1578,-0.1631,-0.1638,-0.1643,0,0,0,0,0,-0.1358,-0.1376,-0.1387,-0.1395,-0.1438,-0.1466,-0.1474,-0.1498,-0.1511,-0.1529,-0.1551,-0.1529,-0.1566,-0.1557,-0.1558,-0.1569,-0.1574,-0.1576,-0.1578,-0.1629,-0.1636,-0.1643,0,0,0,0,0,0,-0.1356,-0.1382,-0.1394,-0.1421,-0.1447,-0.1472,-0.1496,-0.1514,-0.1547,-0.1557,-0.1554,-0.1556,-0.1588,-0.1575,-0.1564,-0.1588,-0.1561,-0.1564,-0.1599,-0.1606,-0.1612,-0.1596,-0.1528,0,0,0,0,0,-0.1362,-0.1382,-0.1408,-0.1433,-0.1448,-0.1478,-0.1499,-0.1516,-0.1542,-0.1559,-0.1573,-0.1584,-0.1595,-0.16,-0.1608,-0.1627,-0.16,-0.1631,-0.1637,-0.1642,-0.163,-0.1615,-0.1618,-0.1586,-0.1586,-0.1586,0,0,-0.137,-0.1387,-0.1401,-0.1435,-0.1459,-0.1482,-0.1491,-0.1528,-0.1551,-0.1553,-0.1599,-0.1613,-0.1608,-0.1632,-0.1642,-0.1623,-0.1638,-0.1645,-0.1649,-0.1634,-0.1618,-0.1621,-0.1623,-0.1588,-0.1587,-0.1587,0,0,-0.1383,-0.141,-0.1428,-0.145,-0.1487,-0.1504,-0.1519,-0.1559,-0.1582,-0.1625,-0.1632,-0.1657,-0.1678,-0.1675,-0.1674,-0.1716,-0.1676,-0.1718,-0.1728,-0.1715,-0.1717,-0.1719,-0.1692,-0.1691,-0.1713,-0.1713,-0.1713,0,-0.1393,-0.1415,-0.1439,-0.146,-0.1481,-0.1514,-0.1537,-0.1565,-0.1614,-0.1629,-0.1644,-0.1685,-0.1692,-0.1703,-0.1722,-0.1727,-0.1709,-0.1704,-0.1722,-0.1723,-0.1723,-0.1696,-0.1693,-0.1716,-0.1716,-0.1715,-0.1715,0,-0.1407,-0.1436,-0.1451,-0.1483,-0.151,-0.1538,-0.1571,-0.1606,-0.1641,-0.1661,-0.1701,-0.1721,-0.1735,-0.1747,-0.1751,-0.1759,-0.1742,-0.1738,-0.1702,-0.173,-0.1699,-0.1696,-0.172,-0.1719,-0.1718,-0.1718,0,0,-0.1396,-0.145,-0.1457,-0.1476,-0.1525,-0.1545,-0.1586,-0.1621,-0.1644,-0.1691,-0.1713,-0.175,-0.1763,-0.1762,-0.177,-0.1765,-0.1769,-0.1757,-0.1755,-0.1727,-0.1731,-0.1621,-0.1607,-0.1772,-0.1771,-0.1771,-0.171,0,-0.14,-0.1438,-0.1466,-0.1506,-0.1527,-0.1568,-0.1598,-0.1636,-0.1671,-0.1702,-0.1722,-0.175,-0.1765,-0.1781,-0.178,-0.1777,-0.1762,-0.1785,-0.1711,-0.1708,-0.1604,-0.16,-0.177,-0.1707,-0.1706,-0.1706,-0.1705,0,-0.1395,-0.1423,-0.1463,-0.1513,-0.1527,-0.1558,-0.1606,-0.1638,-0.1679,-0.1706,-0.1731,-0.175,-0.1764,-0.1772,-0.1756,-0.1773,-0.1752,-0.1741,-0.1739,-0.1608,-0.1591,-0.1673,-0.1698,-0.1699,-0.1699,-0.17,-0.17,0,-0.1357,-0.1416,-0.1448,-0.1467,-0.153,-0.1559,-0.1594,-0.1641,-0.1664,-0.1707,-0.1724,-0.1742,-0.1754,-0.174,-0.1731,-0.1746,-0.1697,-0.1709,-0.1582,-0.1574,-0.1669,-0.1667,-0.1676,-0.1676,-0.1676,-0.1676,-0.1677,0,-0.1332,-0.1361,-0.1439,-0.1455,-0.1492,-0.1544,-0.1581,-0.1619,-0.1662,-0.1672,-0.1723,-0.172,-0.1749,-0.1731,-0.1717,-0.1628,-0.1681,-0.1566,-0.1545,-0.1695,-0.1698,-0.1666,-0.1666,-0.1674,-0.1675,-0.1675,-0.1676,0,-0.1278,-0.1332,-0.1372,-0.145,-0.1476,-0.1502,-0.1572,-0.1585,-0.1643,-0.1655,-0.1669,-0.1703,-0.1672,-0.1675,-0.1643,-0.159,-0.1532,-0.1486,-0.1634,-0.1625,-0.1421,-0.1425,-0.1328,-0.1324,-0.132,-0.1316,-0.1314,0,-0.1247,-0.1265,-0.1356,-0.1379,-0.1419,-0.1469,-0.1492,-0.1564,-0.1573,-0.1624,-0.161,-0.1612,-0.1618,-0.1472,-0.1499,-0.1432,-0.1421,-0.1378,-0.1407,-0.1393,-0.1383,-0.1393,-0.1401,-0.1308,-0.1307,-0.1306,-0.1305,0,-0.1185,-0.1233,-0.1266,-0.1312,-0.1351,-0.1382,-0.1424,-0.1421,-0.1483,-0.1554,-0.1498,-0.1463,-0.1418,-0.1383,-0.1335,-0.1299,-0.1402,-0.1338,-0.1346,-0.1373,-0.1368,-0.1363,-0.1376,-0.1291,-0.1293,-0.1294,-0.1295,0,-0.1137,-0.1144,-0.1194,-0.1221,-0.1271,-0.1272,-0.1309,-0.1305,-0.1323,-0.1385,-0.1359,-0.1362,-0.1398,-0.1311,-0.1272,-0.1219,-0.1204,-0.1166,-0.1183,-0.1198,-0.1184,-0.116,-0.0982,0,0,0,0,0,-0.1076,-0.1071,-0.1093,-0.1116,-0.1162,-0.1187,-0.1247,-0.1283,-0.1348,-0.1269,-0.1309,-0.126,-0.119,-0.1196,-0.1111,-0.1216,-0.1215,-0.1112,-0.1184,-0.1217,-0.1233,-0.1229,0,0,0,0,0,0,-0.1034,-0.1054,-0.1056,-0.1022,-0.1016,-0.1046,-0.108,-0.1127,-0.1091,-0.1162,-0.1128,-0.1178,-0.1129,-0.1211,-0.1082,-0.1083,-0.1099,-0.1124,-0.112,-0.1209,-0.1223,-0.1235,-0.1237,0,0,0,0,0]},{"header":{"parameterUnit":"m.s-1","parameterCategory":2,"la1":30.2991,"la2":30.254,"lo1":-89.0895,"lo2":-89.0444,"dy":0.0017,"dx":0.0017,"nx":28,"ny":28,"refTime":"2025-01-26T03:00:00:Z","depth":"4","parameterNumber":3,"parameterNumberName":"V-component_of_CURRENTS"},"data":[0,0,0,0,0,0,0,0,0,0,0,0,0,0,0,0,0,0,0,0,0,0,0,0,0,0,0,0,0,0,0,0,0,0,0,0,0,0,0,0,0,0,0,0,0,0,0,0,0,0,0,0,0,0,0,0,0,0,-0.0177,-0.0177,0,-0.0145,-0.0145,-0.0144,-0.0113,-0.0113,-0.0113,-0.0112,-0.0033,-0.0031,-0.003,0,0,0,0,0,0,0,0,0,0,0,0,0,-0.0193,-0.0193,-0.0177,-0.0177,-0.0176,-0.0145,-0.0145,-0.0144,-0.0113,-0.0113,-0.0112,-0.0112,-0.0034,-0.0031,-0.0029,0,0,0,0,0,0,0,0,0,0,0,0,0,-0.0176,-0.0193,-0.0177,-0.0157,-0.0155,-0.0145,-0.0145,-0.0144,-0.0113,-0.0113,-0.0112,-0.0112,-0.0034,-0.0032,-0.0029,-0.0025,0,0,-0.0021,-0.002,0,0,0,0,0,0,0,0,-0.0177,-0.0175,-0.0161,-0.0159,-0.0156,-0.0133,-0.0121,-0.0102,-0.0114,-0.0129,-0.0112,-0.0111,-0.0062,-0.0057,-0.0053,-0.0021,-0.0018,-0.0021,-0.0019,-0.0018,-0.0017,0,0,0,0,0,0,0,-0.0178,-0.0176,-0.0164,-0.016,-0.0158,-0.0143,-0.0141,-0.0118,-0.0099,-0.0128,-0.0126,-0.0122,-0.0061,-0.0056,-0.0051,-0.0016,-0.0021,-0.0019,-0.0017,-0.0016,0.003,0.0029,0,0,0,0,0,0,-0.0184,-0.0178,-0.0165,-0.0163,-0.0165,-0.0144,-0.0141,-0.0141,-0.01,-0.0093,-0.0123,-0.0121,-0.0061,-0.0054,-0.0048,-0.0043,-0.0018,-0.0016,-0.0014,0.003,0.003,0.0029,0,0,0,0,0,0,-0.0185,-0.0183,-0.0167,-0.017,-0.0166,-0.0144,-0.0145,-0.014,-0.0136,-0.0097,-0.0089,-0.0123,-0.006,-0.0052,-0.0036,-0.0039,-0.0015,-0.0012,0.0031,0.003,0.003,-0.0031,0,0,0,0,0,0,-0.0185,-0.0184,-0.0189,-0.017,-0.0167,-0.0167,-0.0145,-0.014,-0.0135,-0.0132,-0.0094,-0.0086,-0.0059,-0.0041,-0.0034,-0.0035,-0.001,0.0031,0.003,0.003,-0.0029,-0.0033,-0.0038,0,0,0,0,0,-0.0186,-0.0195,-0.0189,-0.0188,-0.0173,-0.0167,-0.0164,-0.0146,-0.0136,-0.0139,-0.0116,-0.0087,-0.0039,-0.0039,-0.0031,-0.0032,0.0031,0.0031,0.003,-0.0026,-0.0033,-0.0038,0,0,0,0,0,0,-0.0203,-0.0192,-0.0186,-0.019,-0.0183,-0.0162,-0.0164,-0.0152,-0.0137,-0.0134,-0.0096,-0.0087,-0.0074,-0.0047,-0.0047,-0.002,0.0003,0.0003,-0.0043,-0.0048,-0.0053,-0.0055,-0.0008,0,0,0,0,0,-0.021,-0.0215,-0.0201,-0.0206,-0.0204,-0.0186,-0.0182,-0.0171,-0.0154,-0.0148,-0.0122,-0.0094,-0.0072,-0.0056,-0.0034,-0.0021,0.0011,-0.0014,-0.0019,-0.0023,-0.0019,0.0021,0.002,0.0027,0.0027,0.0027,0,0,-0.0217,-0.0213,-0.0215,-0.021,-0.0202,-0.0204,-0.0182,-0.0181,-0.0181,-0.0141,-0.0135,-0.0112,-0.0073,-0.0061,-0.0052,-0.0037,-0.001,-0.0024,-0.0028,-0.0021,0.002,0.0019,0.0019,0.0026,0.0026,0.0026,0,0,-0.0236,-0.0233,-0.0243,-0.024,-0.0234,-0.0223,-0.0225,-0.0211,-0.0203,-0.0198,-0.0168,-0.0149,-0.0117,-0.0089,-0.007,-0.0085,-0.004,-0.0077,-0.0097,-0.0059,-0.006,-0.0059,-0.0032,-0.0028,-0.0075,-0.0075,-0.0075,0,-0.0245,-0.0255,-0.0245,-0.0254,-0.0253,-0.0234,-0.0243,-0.0235,-0.0217,-0.0209,-0.0203,-0.0155,-0.0128,-0.01,-0.0109,-0.0095,-0.0069,-0.0082,-0.0066,-0.0064,-0.0063,-0.0034,-0.003,-0.0078,-0.0078,-0.0077,-0.0077,0,-0.0268,-0.0278,-0.0285,-0.0289,-0.0288,-0.0295,-0.0281,-0.0279,-0.0268,-0.0252,-0.0231,-0.0199,-0.0165,-0.0157,-0.0139,-0.0115,-0.01,-0.0081,-0.0053,-0.0067,-0.0036,-0.0031,-0.0082,-0.0081,-0.008,-0.008,0,0,-0.0285,-0.0298,-0.0302,-0.0311,-0.0308,-0.0311,-0.0312,-0.0302,-0.0297,-0.028,-0.0267,-0.0236,-0.0214,-0.0191,-0.0162,-0.0132,-0.011,-0.0108,-0.0104,-0.0084,-0.0033,-0.0036,-0.003,-0.0089,-0.0088,-0.0087,-0.002,0,-0.0306,-0.0334,-0.0331,-0.0354,-0.0366,-0.0351,-0.0353,-0.0341,-0.0323,-0.0307,-0.0268,-0.0247,-0.0227,-0.0213,-0.0181,-0.0125,-0.0096,-0.0131,-0.0019,-0.0015,-0.0019,-0.0024,-0.0084,-0.0015,-0.0014,-0.0013,-0.0012,0,-0.0328,-0.0344,-0.0374,-0.0387,-0.039,-0.0401,-0.0395,-0.0394,-0.0361,-0.0346,-0.0313,-0.0278,-0.0235,-0.0218,-0.0127,-0.015,-0.0099,-0.0056,-0.0052,-0.0027,-0.0008,0.0007,-0.0001,-0.0002,-0.0003,-0.0004,-0.0004,0,-0.0348,-0.0373,-0.04,-0.0406,-0.0417,-0.0426,-0.0429,-0.0408,-0.0405,-0.0369,-0.0356,-0.0296,-0.0268,-0.0193,-0.0114,-0.0116,-0.0012,0.0001,0.0048,0.0048,0.0058,0.0057,0.0067,0.0067,0.0067,0.0067,0.0067,0,-0.0368,-0.039,-0.0415,-0.0431,-0.0461,-0.0455,-0.0472,-0.0462,-0.0442,-0.0433,-0.038,-0.0352,-0.0261,-0.0191,-0.0115,-0.0019,-0.0009,0.0046,0.0068,0.0029,0.0024,0.0062,0.006,0.007,0.0069,0.0069,0.0068,0,-0.0384,-0.04,-0.0436,-0.0462,-0.0474,-0.0497,-0.0513,-0.0517,-0.0494,-0.0479,-0.047,-0.0395,-0.0301,-0.0206,-0.0082,-0.0027,0.007,0.0102,0.0045,0.0062,0.0106,0.01,0.0165,0.0165,0.0166,0.0166,0.0166,0,-0.0394,-0.0415,-0.0466,-0.0493,-0.051,-0.0541,-0.0558,-0.055,-0.0546,-0.0498,-0.0486,-0.0403,-0.0342,-0.0164,-0.0071,0.0073,0.0092,0.0135,0.0126,0.0102,0.0117,0.0111,0.0105,0.0167,0.0167,0.0167,0.0167,0,-0.0411,-0.0435,-0.0467,-0.0523,-0.0558,-0.0589,-0.0607,-0.0606,-0.0582,-0.0566,-0.048,-0.0387,-0.0284,-0.0156,-0.0052,0.0053,0.0104,0.014,0.014,0.0132,0.0105,0.0119,0.0112,0.0169,0.0169,0.0169,0.0168,0,-0.0425,-0.0455,-0.05,-0.0546,-0.0594,-0.0618,-0.0625,-0.0604,-0.0592,-0.0528,-0.0501,-0.0381,-0.0315,-0.0166,-0.0064,0.003,0.0057,0.0086,0.0089,0.0089,0.0042,-0.0004,0.0047,0,0,0,0,0,-0.0433,-0.0468,-0.0515,-0.0565,-0.0612,-0.0633,-0.0647,-0.0642,-0.0617,-0.0556,-0.0523,-0.0417,-0.0255,-0.0182,-0.0085,-0.007,0.0056,0.0045,0.0088,0.0177,0.0175,0.0133,0,0,0,0,0,0,-0.044,-0.049,-0.0515,-0.0568,-0.0601,-0.0642,-0.0651,-0.0634,-0.0585,-0.0546,-0.0454,-0.04,-0.0242,-0.0309,-0.0085,-0.0057,-0.0018,0.0121,0.0123,0.0178,0.0176,0.0175,0.013,0,0,0,0,0]}]]